Weather History for Diyarbakir, Turkey

Change the Weather History Date:

Sunday, October 21, 2012

  Actual Average Record
Temperature  
Mean Temperature 62 °F -  
Max Temperature 71 °F 66 °F 84 °F (2010)
Min Temperature 53 °F 43 °F 39 °F (2005)
Degree Days  
Heating Degree Days 3    
Growing Degree Days 12 (Base 50)    
Moisture  
Dew Point 54 °F    
Average Humidity 79    
Maximum Humidity 100    
Minimum Humidity 41    
Precipitation  
Precipitation 0.08 in 0.06 in - ()
Sea Level Pressure  
Sea Level Pressure 30.13 in    
Wind  
Wind Speed 3 mph ()    
Max Wind Speed 9 mph    
Max Gust Speed -    
Visibility 6.4 miles    
Events Rain , Thunderstorm    
Averages and records for this station are not official NWS values.
T = Trace of Precipitation, MM = Missing Value Source: Averaged Metar Reports

Daily Weather History Graph

Daily Weather History Graph

Search for Another Location

Airport:

Trip Planner

Search our weather history database for the weather conditions in past years. The results will help you decide how hot, cold, wet, or windy it might be!

Date:

Astronomy

Oct. 21, 2012 Rise Set
Actual Time 6:33 AM EEST 5:33 PM EEST
Civil Twilight 6:07 AM EEST 6:00 PM EEST
Nautical Twilight 5:36 AM EEST 6:30 PM EEST
Astronomical Twilight 5:05 AM EEST 7:01 PM EEST
Moon 12:36 PM EEST (10/21) 11:05 PM EEST (10/21)
Length of Visible Light 11h 53m
Length of Day
10h 59m
Waxing Crescent, 41% of the Moon is Illuminated
Oct 21
Waxing Crescent
Oct 22
First Quarter
Oct 29
Full
Nov 7
Last Quarter
Nov 14
New

Hourly Weather History & Observations

Time (EEST) Temp. Dew Point Humidity Pressure Visibility Wind Dir Wind Speed Gust Speed Precip Events Conditions
12:20 AM 55.4 °F 53.6 °F 94% 30.12 in 6.2 mi Variable 2.3 mph - N/A   Mostly Cloudy
12:50 AM 55.4 °F 53.6 °F 94% 30.12 in 6.2 mi East 1.2 mph - N/A   Mostly Cloudy
1:20 AM 55.4 °F 53.6 °F 94% 30.12 in 6.2 mi Calm Calm - N/A   Mostly Cloudy
1:50 AM 55.4 °F 53.6 °F 94% 30.12 in 6.2 mi Calm Calm - N/A   Mostly Cloudy
2:20 AM 55.4 °F 53.6 °F 94% 30.12 in 6.2 mi Calm Calm - N/A   Mostly Cloudy
3:00 AM 55 °F 54 °F 94% 30.09 in 12 mi Calm Calm - -   Partly Cloudy
3:20 AM 55.4 °F 53.6 °F 94% 30.12 in 6.2 mi Variable 1.2 mph - N/A   Mostly Cloudy
3:50 AM 53.6 °F 51.8 °F 94% 30.12 in 6.2 mi Calm Calm - N/A   Mostly Cloudy
4:20 AM 53.6 °F 53.6 °F 100% 30.15 in 6.2 mi Calm Calm - N/A   Mostly Cloudy
4:50 AM 53.6 °F 51.8 °F 94% 30.15 in 6.2 mi West 3.5 mph - N/A   Mostly Cloudy
5:20 AM 55.4 °F 53.6 °F 94% 30.15 in 6.2 mi West 5.8 mph - N/A Rain Light Rain Showers
5:50 AM 55.4 °F 53.6 °F 94% 30.15 in 6.2 mi West 6.9 mph - N/A Rain Light Rain Showers
6:20 AM 55.4 °F 53.6 °F 94% 30.15 in 6.2 mi Calm Calm - N/A Rain Light Rain Showers
6:50 AM 55.4 °F 53.6 °F 94% 30.18 in 6.2 mi Calm Calm - N/A Rain Light Rain Showers
7:20 AM 55.4 °F 53.6 °F 94% 30.18 in 6.2 mi NNW 9.2 mph - N/A   Mostly Cloudy
7:50 AM 57.2 °F 55.4 °F 94% 30.18 in 6.2 mi NNE 5.8 mph - N/A Rain Light Rain Showers
8:20 AM 59.0 °F 55.4 °F 88% 30.18 in 6.2 mi NNE 5.8 mph - N/A   Mostly Cloudy
8:50 AM 59.0 °F 55.4 °F 88% 30.18 in 6.2 mi NE 6.9 mph - N/A   Mostly Cloudy
9:00 AM 59 °F 55 °F 81% 30.14 in 12 mi NE 6.9 mph - -   Partly Cloudy
9:20 AM 60.8 °F 53.6 °F 77% 30.18 in 6.2 mi ENE 5.8 mph - N/A   Mostly Cloudy
9:50 AM 62.6 °F 55.4 °F 77% 30.18 in 6.2 mi ENE 5.8 mph - N/A   Mostly Cloudy
10:20 AM 62.6 °F 55.4 °F 77% 30.18 in 6.2 mi East 6.9 mph - N/A   Mostly Cloudy
10:50 AM 62.6 °F 55.4 °F 77% 30.18 in 6.2 mi SE 4.6 mph - N/A   Mostly Cloudy
11:20 AM 62.6 °F 55.4 °F 77% 30.18 in 6.2 mi Calm Calm - N/A Rain Light Rain Showers
11:50 AM 62.6 °F 55.4 °F 77% 30.15 in 6.2 mi West 4.6 mph - N/A   Mostly Cloudy
12:20 PM 64.4 °F 55.4 °F 73% 30.15 in 6.2 mi Variable 2.3 mph - N/A   Mostly Cloudy
12:50 PM 66.2 °F 55.4 °F 68% 30.15 in 6.2 mi South 2.3 mph - N/A   Mostly Cloudy
1:20 PM 66.2 °F 55.4 °F 68% 30.12 in 6.2 mi Variable 2.3 mph - N/A   Mostly Cloudy
1:50 PM 68.0 °F 55.4 °F 64% 30.12 in 6.2 mi WSW 3.5 mph - N/A   Mostly Cloudy
2:20 PM 69.8 °F 55.4 °F 60% 30.12 in 6.2 mi Variable 3.5 mph - N/A   Mostly Cloudy
2:50 PM 71.6 °F 53.6 °F 53% 30.12 in 6.2 mi SSE 4.6 mph - N/A   Mostly Cloudy
3:00 PM 71 °F 53 °F 41% 30.06 in 6 mi SSE 4.6 mph - -   Partly Cloudy
3:20 PM 69.8 °F 51.8 °F 53% 30.09 in 6.2 mi ESE 6.9 mph - N/A   Mostly Cloudy
3:50 PM 69.8 °F 51.8 °F 53% 30.09 in 6.2 mi ESE 4.6 mph - N/A   Mostly Cloudy
4:20 PM 69.8 °F 51.8 °F 53% 30.09 in 6.2 mi East 4.6 mph - N/A   Mostly Cloudy
4:50 PM 68.0 °F 51.8 °F 56% 30.09 in 6.2 mi ESE 1.2 mph - N/A   Mostly Cloudy
5:20 PM 68.0 °F 51.8 °F 56% 30.12 in 6.2 mi Calm Calm - N/A   Mostly Cloudy
5:50 PM 66.2 °F 51.8 °F 60% 30.12 in 6.2 mi Calm Calm - N/A Thunderstorm Thunderstorm
6:20 PM 66.2 °F 55.4 °F 68% 30.12 in 6.2 mi Calm Calm - N/A   Scattered Clouds
6:50 PM 62.6 °F 53.6 °F 72% 30.12 in 6.2 mi North 6.9 mph - N/A Thunderstorm Thunderstorm
7:20 PM 62.6 °F 55.4 °F 77% 30.15 in 6.2 mi North 5.8 mph - N/A Thunderstorm Thunderstorm
7:50 PM 62.6 °F 57.2 °F 82% 30.12 in 6.2 mi North 8.1 mph - N/A Thunderstorm Thunderstorm
8:20 PM 62.6 °F 53.6 °F 72% 30.12 in 6.2 mi NE 6.9 mph - N/A   Mostly Cloudy
8:50 PM 62.6 °F 55.4 °F 77% 30.15 in 6.2 mi East 3.5 mph - N/A   Mostly Cloudy
9:00 PM 62 °F 54 °F 69% 30.11 in 6 mi East 3.5 mph - -   Partly Cloudy
9:20 PM 60.8 °F 55.4 °F 82% 30.15 in 6.2 mi Variable 1.2 mph - N/A   Scattered Clouds
9:50 PM 59.0 °F 53.6 °F 82% 30.12 in 6.2 mi Variable 2.3 mph - N/A   Scattered Clouds
10:20 PM 57.2 °F 55.4 °F 94% 30.12 in 6.2 mi NW 4.6 mph - N/A   Scattered Clouds
10:50 PM 57.2 °F 53.6 °F 88% 30.12 in 6.2 mi WNW 5.8 mph - N/A   Scattered Clouds
11:20 PM 57.2 °F 53.6 °F 88% 30.12 in 6.2 mi WNW 4.6 mph - N/A   Scattered Clouds
11:50 PM 57.2 °F 51.8 °F 82% 30.15 in 6.2 mi Calm Calm - N/A   Scattered Clouds